sat.trackr.live / text

‹ back to catalog

STARLINK-37503

NORAD 69262 · 2026-117AA

PAYLOAD ACTIVE UNKNOWN

§ Identity

Operator
Country
US
Launch date
2026-05-29
Launch site
AFETR
Launch vehicle
Mass (kg)
RCS (m²)

Purposes: comms

External: N2YO · Heavens-Above · Gunter

§ Orbital elements

Epoch: 2026-09-19T23:22:41.958336Z

Period
93.85 min
Inclination
53.1581°
Eccentricity
0.0001677
Mean motion
15.34442178 rev/d
Perigee alt
461.4 km
Apogee alt
463.7 km
Semi-major
6,840.7 km
B*
5.6138e-4
RAAN
156.3829°
Arg perigee
89.3809°
Mean anomaly
270.7385°
Rev number
1,758

§ Raw data

STARLINK-375031 69262U 26117AA  26262.97409674  .00018664  00000+0  56138-3 0  99962 69262  53.1581 156.3829 0001677  89.3809 270.7385 15.34442178 17584

JSON: /api/v1/satellites/69262 · /tle

For live sub-satellite position, see the globe view (requires WebGL).

§ Visibility from observer

Set your observer location to see the next 7 days of passes ≥ 10°. The values pass through the URL so the page stays shareable.

No JS? Fill the form by hand. The geolocation button needs JavaScript.